Time,TemperatureF,DewpointF,PressureIn,WindDirection,WindDirectionDegrees,WindSpeedMPH,WindSpeedGustMPH,Humidity,HourlyPrecipIn,Conditions,Clouds,dailyrainin,SoftwareType,DateUTC
2013-05-29 00:01:00,56.1,46.9,29.85,WSW,248,3.1,4.9,71,0.00,,,0.00,VWS V14.01,2013-05-29 07:01:00,
2013-05-29 00:06:00,55.9,47.1,29.85,SSW,202,4.0,4.9,72,0.00,,,0.00,VWS V14.01,2013-05-29 07:06:00,
2013-05-29 00:12:00,55.9,47.1,29.85,SSW,202,4.9,4.9,72,0.00,,,0.00,VWS V14.01,2013-05-29 07:12:00,
2013-05-29 00:17:00,55.9,47.1,29.85,SSW,202,4.0,6.3,72,0.00,,,0.00,VWS V14.01,2013-05-29 07:17:00,
2013-05-29 00:22:00,55.9,47.1,29.85,SSE,158,4.0,5.4,72,0.00,,,0.00,VWS V14.01,2013-05-29 07:22:00,
2013-05-29 00:27:00,55.9,47.4,29.85,SSW,202,4.0,4.9,73,0.00,,,0.00,VWS V14.01,2013-05-29 07:27:00,
2013-05-29 00:32:00,55.9,47.4,29.85,East,90,3.1,3.1,73,0.00,,,0.00,VWS V14.01,2013-05-29 07:32:00,
2013-05-29 00:38:00,55.9,47.8,29.85,SSW,202,4.9,4.9,74,0.00,,,0.00,VWS V14.01,2013-05-29 07:38:00,
2013-05-29 00:43:00,55.9,47.8,29.85,SSW,202,2.7,4.0,74,0.00,,,0.00,VWS V14.01,2013-05-29 07:43:00,
2013-05-29 00:48:00,55.9,47.8,29.85,SW,225,4.9,4.9,74,0.00,,,0.00,VWS V14.01,2013-05-29 07:48:00,
2013-05-29 00:53:00,55.9,47.8,29.85,SSW,202,3.6,7.2,74,0.00,,,0.00,VWS V14.01,2013-05-29 07:53:00,
2013-05-29 00:59:00,55.9,47.8,29.85,SSW,202,2.7,3.6,74,0.00,,,0.00,VWS V14.01,2013-05-29 07:59:00,
2013-05-29 01:04:00,55.9,47.8,29.85,NNE,22,0.0,2.7,74,0.00,,,0.00,VWS V14.01,2013-05-29 08:04:00,
2013-05-29 01:09:00,55.9,47.8,29.85,SSW,202,3.6,3.6,74,0.00,,,0.00,VWS V14.01,2013-05-29 08:09:00,
2013-05-29 01:14:00,55.9,47.8,29.85,SSW,202,4.9,4.9,74,0.00,,,0.00,VWS V14.01,2013-05-29 08:14:00,
2013-05-29 01:19:00,55.9,47.8,29.85,WSW,248,3.1,3.1,74,0.00,,,0.00,VWS V14.01,2013-05-29 08:19:00,
2013-05-29 01:24:00,56.1,48.0,29.85,South,180,3.1,4.0,74,0.00,,,0.00,VWS V14.01,2013-05-29 08:24:00,
2013-05-29 01:29:00,56.3,47.8,29.85,WSW,248,4.9,4.9,73,0.00,,,0.00,VWS V14.01,2013-05-29 08:29:00,
2013-05-29 01:35:00,56.1,47.6,29.85,SSE,158,8.1,8.1,73,0.00,,,0.00,VWS V14.01,2013-05-29 08:35:00,
2013-05-29 01:40:00,55.9,47.4,29.85,WSW,248,3.6,3.6,73,0.00,,,0.00,VWS V14.01,2013-05-29 08:40:00,
2013-05-29 01:45:00,55.9,47.4,29.85,WSW,248,4.0,5.8,73,0.00,,,0.00,VWS V14.01,2013-05-29 08:45:00,
2013-05-29 01:50:00,55.9,47.4,29.85,SW,225,3.6,6.3,73,0.00,,,0.00,VWS V14.01,2013-05-29 08:50:00,
2013-05-29 01:56:00,55.9,47.1,29.82,SSW,202,4.5,4.5,72,0.00,,,0.00,VWS V14.01,2013-05-29 08:56:00,
2013-05-29 02:01:00,55.9,47.1,29.82,SSW,202,3.1,3.1,72,0.00,,,0.00,VWS V14.01,2013-05-29 09:01:00,
2013-05-29 02:06:00,55.9,47.1,29.82,SSE,158,5.4,5.8,72,0.00,,,0.00,VWS V14.01,2013-05-29 09:06:00,
2013-05-29 02:11:00,55.9,46.7,29.82,SSE,158,2.7,4.9,71,0.00,,,0.00,VWS V14.01,2013-05-29 09:11:00,
2013-05-29 02:16:00,55.9,46.3,29.82,SSW,202,3.6,4.9,70,0.00,,,0.00,VWS V14.01,2013-05-29 09:16:00,
2013-05-29 02:21:00,55.9,46.3,29.82,North,0,2.7,5.4,70,0.00,,,0.00,VWS V14.01,2013-05-29 09:21:00,
2013-05-29 02:27:00,56.1,46.1,29.82,SSE,158,2.2,3.6,69,0.00,,,0.00,VWS V14.01,2013-05-29 09:27:00,
2013-05-29 02:32:00,56.1,46.1,29.82,SSE,158,2.2,5.8,69,0.00,,,0.00,VWS V14.01,2013-05-29 09:32:00,
2013-05-29 02:37:00,56.3,45.9,29.82,SSE,158,5.8,5.8,68,0.00,,,0.00,VWS V14.01,2013-05-29 09:37:00,
2013-05-29 02:42:00,56.3,45.9,29.82,SSW,202,2.2,3.6,68,0.00,,,0.00,VWS V14.01,2013-05-29 09:42:00,
2013-05-29 02:47:00,56.5,46.1,29.82,SSW,202,3.6,3.6,68,0.00,,,0.00,VWS V14.01,2013-05-29 09:47:00,
2013-05-29 02:52:00,56.3,45.9,29.82,West,270,3.6,3.6,68,0.00,,,0.00,VWS V14.01,2013-05-29 09:52:00,
2013-05-29 02:58:00,56.3,46.3,29.85,SSE,158,0.0,4.0,69,0.00,,,0.00,VWS V14.01,2013-05-29 09:58:00,
2013-05-29 03:03:00,56.3,46.3,29.85,South,180,4.0,4.0,69,0.00,,,0.00,VWS V14.01,2013-05-29 10:03:00,
2013-05-29 03:08:00,56.3,46.3,29.85,East,90,2.7,3.6,69,0.00,,,0.00,VWS V14.01,2013-05-29 10:08:00,
2013-05-29 03:13:00,56.3,45.9,29.85,WSW,248,3.6,3.6,68,0.00,,,0.00,VWS V14.01,2013-05-29 10:13:00,
2013-05-29 03:18:00,56.3,45.9,29.85,WSW,248,3.1,3.1,68,0.00,,,0.00,VWS V14.01,2013-05-29 10:18:00,
2013-05-29 03:23:00,56.3,45.5,29.85,SSW,202,2.2,2.7,67,0.00,,,0.00,VWS V14.01,2013-05-29 10:23:00,
2013-05-29 03:28:00,56.5,45.7,29.82,WSW,248,2.2,2.2,67,0.00,,,0.00,VWS V14.01,2013-05-29 10:28:00,
2013-05-29 03:33:00,56.5,45.3,29.82,West,270,0.0,0.0,66,0.00,,,0.00,VWS V14.01,2013-05-29 10:33:00,
2013-05-29 03:39:00,56.7,45.4,29.82,SSE,158,2.7,2.7,66,0.00,,,0.00,VWS V14.01,2013-05-29 10:39:00,
2013-05-29 03:44:00,56.7,45.0,29.82,SSW,202,4.0,4.0,65,0.00,,,0.00,VWS V14.01,2013-05-29 10:44:00,
2013-05-29 03:49:00,56.8,44.8,29.82,SSW,202,2.2,2.2,64,0.00,,,0.00,VWS V14.01,2013-05-29 10:49:00,
2013-05-29 03:54:00,56.8,44.8,29.85,SSW,202,2.7,2.7,64,0.00,,,0.00,VWS V14.01,2013-05-29 10:54:00,
2013-05-29 03:59:00,56.8,44.8,29.85,NNE,22,0.0,0.0,64,0.00,,,0.00,VWS V14.01,2013-05-29 10:59:00,
2013-05-29 04:04:00,56.8,44.4,29.85,SSE,158,2.7,3.1,63,0.00,,,0.00,VWS V14.01,2013-05-29 11:04:00,
2013-05-29 04:10:00,57.0,44.6,29.82,North,0,2.7,2.7,63,0.00,,,0.00,VWS V14.01,2013-05-29 11:10:00,
2013-05-29 04:15:00,57.0,44.6,29.82,NE,45,0.0,0.0,63,0.00,,,0.00,VWS V14.01,2013-05-29 11:15:00,
2013-05-29 04:20:00,57.2,44.3,29.82,North,0,0.0,2.7,62,0.00,,,0.00,VWS V14.01,2013-05-29 11:20:00,
2013-05-29 04:25:00,57.2,44.7,29.85,NNE,22,0.0,2.7,63,0.00,,,0.00,VWS V14.01,2013-05-29 11:25:00,
2013-05-29 04:30:00,56.8,44.8,29.85,NE,45,0.0,0.0,64,0.00,,,0.00,VWS V14.01,2013-05-29 11:30:00,
2013-05-29 04:35:00,56.8,45.2,29.85,ENE,68,0.0,0.0,65,0.00,,,0.00,VWS V14.01,2013-05-29 11:35:00,
2013-05-29 04:40:00,56.8,45.2,29.85,SSE,158,0.0,0.0,65,0.00,,,0.00,VWS V14.01,2013-05-29 11:40:00,
2013-05-29 04:45:00,56.8,45.6,29.85,East,90,0.0,0.0,66,0.00,,,0.00,VWS V14.01,2013-05-29 11:45:00,
2013-05-29 04:51:00,56.7,45.4,29.85,SSE,158,3.1,3.1,66,0.00,,,0.00,VWS V14.01,2013-05-29 11:51:00,
2013-05-29 04:56:00,56.7,45.0,29.85,SSE,158,0.0,0.0,65,0.00,,,0.00,VWS V14.01,2013-05-29 11:56:00,
2013-05-29 05:01:00,56.7,45.0,29.85,SE,135,0.0,0.0,65,0.00,,,0.00,VWS V14.01,2013-05-29 12:01:00,
2013-05-29 05:06:00,56.8,45.2,29.85,ESE,112,0.0,0.0,65,0.00,,,0.00,VWS V14.01,2013-05-29 12:06:00,
2013-05-29 05:11:00,56.8,45.2,29.82,NE,45,0.0,0.0,65,0.00,,,0.00,VWS V14.01,2013-05-29 12:11:00,
2013-05-29 05:16:00,57.0,45.4,29.82,SW,225,0.0,0.0,65,0.00,,,0.00,VWS V14.01,2013-05-29 12:16:00,
2013-05-29 05:21:00,57.0,45.0,29.82,East,90,0.0,2.7,64,0.00,,,0.00,VWS V14.01,2013-05-29 12:21:00,
2013-05-29 05:27:00,57.0,45.0,29.82,East,90,0.0,0.0,64,0.00,,,0.00,VWS V14.01,2013-05-29 12:27:00,
2013-05-29 05:32:00,57.2,44.7,29.82,ESE,112,0.0,0.0,63,0.00,,,0.00,VWS V14.01,2013-05-29 12:32:00,
2013-05-29 05:37:00,57.2,44.7,29.82,ENE,68,0.0,2.2,63,0.00,,,0.00,VWS V14.01,2013-05-29 12:37:00,
2013-05-29 05:42:00,57.2,44.7,29.82,SSE,158,0.0,0.0,63,0.00,,,0.00,VWS V14.01,2013-05-29 12:42:00,
2013-05-29 05:47:00,57.2,44.7,29.82,SSW,202,4.5,4.9,63,0.00,,,0.00,VWS V14.01,2013-05-29 12:47:00,
2013-05-29 05:53:00,57.2,44.3,29.82,South,180,0.0,0.0,62,0.00,,,0.00,VWS V14.01,2013-05-29 12:53:00,
2013-05-29 05:58:00,57.2,44.3,29.82,NNE,22,0.0,2.2,62,0.00,,,0.00,VWS V14.01,2013-05-29 12:58:00,
2013-05-29 06:03:00,57.4,44.5,29.82,NE,45,0.0,3.1,62,0.00,,,0.00,VWS V14.01,2013-05-29 13:03:00,
2013-05-29 06:09:00,57.4,44.5,29.82,South,180,2.2,2.2,62,0.00,,,0.00,VWS V14.01,2013-05-29 13:09:00,
2013-05-29 06:14:00,57.4,44.5,29.85,SSW,202,3.1,3.1,62,0.00,,,0.00,VWS V14.01,2013-05-29 13:14:00,
2013-05-29 06:19:00,57.4,44.9,29.85,South,180,3.1,3.1,63,0.00,,,0.00,VWS V14.01,2013-05-29 13:19:00,
2013-05-29 06:24:00,57.4,44.9,29.85,East,90,2.2,2.2,63,0.00,,,0.00,VWS V14.01,2013-05-29 13:24:00,
2013-05-29 06:29:00,57.4,44.9,29.85,WSW,248,2.2,2.7,63,0.00,,,0.00,VWS V14.01,2013-05-29 13:29:00,
2013-05-29 06:35:00,57.0,44.6,29.85,South,180,2.7,4.0,63,0.00,,,0.00,VWS V14.01,2013-05-29 13:35:00,
2013-05-29 06:40:00,56.8,44.8,29.85,WSW,248,3.6,3.6,64,0.00,,,0.00,VWS V14.01,2013-05-29 13:40:00,
2013-05-29 06:45:00,56.7,45.0,29.82,SSW,202,2.7,3.1,65,0.00,,,0.00,VWS V14.01,2013-05-29 13:45:00,
2013-05-29 06:50:00,56.7,45.4,29.82,South,180,2.7,2.7,66,0.00,,,0.00,VWS V14.01,2013-05-29 13:50:00,
2013-05-29 06:55:00,56.7,45.4,29.82,WSW,248,3.6,3.6,66,0.00,,,0.00,VWS V14.01,2013-05-29 13:55:00,
2013-05-29 07:01:00,56.7,45.8,29.82,NW,315,3.1,3.6,67,0.00,,,0.00,VWS V14.01,2013-05-29 14:01:00,
2013-05-29 07:06:00,56.8,46.0,29.82,SSW,202,3.1,3.6,67,0.00,,,0.00,VWS V14.01,2013-05-29 14:06:00,
2013-05-29 07:11:00,56.8,46.0,29.85,WSW,248,3.1,4.0,67,0.00,,,0.00,VWS V14.01,2013-05-29 14:11:00,
2013-05-29 07:16:00,57.0,46.2,29.85,WSW,248,4.0,4.0,67,0.00,,,0.00,VWS V14.01,2013-05-29 14:16:00,
2013-05-29 07:21:00,56.8,45.6,29.85,South,180,2.2,4.0,66,0.00,,,0.00,VWS V14.01,2013-05-29 14:21:00,
2013-05-29 07:27:00,56.8,46.0,29.85,SSW,202,3.6,4.5,67,0.00,,,0.00,VWS V14.01,2013-05-29 14:27:00,
2013-05-29 07:32:00,56.8,46.0,29.85,SW,225,0.0,0.0,67,0.00,,,0.00,VWS V14.01,2013-05-29 14:32:00,
2013-05-29 07:37:00,56.8,46.0,29.85,SSW,202,4.9,5.4,67,0.00,,,0.00,VWS V14.01,2013-05-29 14:37:00,
2013-05-29 07:42:00,56.8,46.4,29.85,SSW,202,2.7,3.1,68,0.00,,,0.00,VWS V14.01,2013-05-29 14:42:00,
2013-05-29 07:47:00,56.8,46.4,29.85,SSW,202,2.2,2.2,68,0.00,,,0.00,VWS V14.01,2013-05-29 14:47:00,
2013-05-29 07:52:00,56.8,46.4,29.85,SSE,158,3.6,3.6,68,0.00,,,0.00,VWS V14.01,2013-05-29 14:52:00,
2013-05-29 07:57:00,56.8,46.8,29.85,SSW,202,3.6,5.4,69,0.00,,,0.00,VWS V14.01,2013-05-29 14:57:00,
2013-05-29 08:03:00,56.8,46.8,29.85,SSW,202,3.6,3.6,69,0.00,,,0.00,VWS V14.01,2013-05-29 15:03:00,
2013-05-29 08:08:00,57.2,47.1,29.85,SW,225,2.2,3.6,69,0.00,,,0.00,VWS V14.01,2013-05-29 15:08:00,
2013-05-29 08:13:00,57.4,47.3,29.85,SSW,202,2.2,4.9,69,0.00,,,0.00,VWS V14.01,2013-05-29 15:13:00,
2013-05-29 08:18:00,57.7,47.3,29.85,WSW,248,3.1,3.1,68,0.00,,,0.00,VWS V14.01,2013-05-29 15:18:00,
2013-05-29 08:23:00,57.7,47.3,29.85,ESE,112,4.9,4.9,68,0.00,,,0.00,VWS V14.01,2013-05-29 15:23:00,
2013-05-29 08:28:00,57.7,46.9,29.85,SSW,202,4.0,4.0,67,0.00,,,0.00,VWS V14.01,2013-05-29 15:28:00,
2013-05-29 08:33:00,58.1,47.6,29.85,SSW,202,3.6,3.6,68,0.00,,,0.00,VWS V14.01,2013-05-29 15:33:00,
2013-05-29 08:39:00,58.3,47.8,29.88,SSW,202,3.6,4.9,68,0.00,,,0.00,VWS V14.01,2013-05-29 15:39:00,
2013-05-29 08:44:00,58.3,47.8,29.88,SSW,202,2.2,3.1,68,0.00,,,0.00,VWS V14.01,2013-05-29 15:44:00,
2013-05-29 08:49:00,58.3,47.4,29.88,SW,225,3.6,3.6,67,0.00,,,0.00,VWS V14.01,2013-05-29 15:49:00,
2013-05-29 08:54:00,58.5,48.0,29.88,WNW,292,2.7,3.6,68,0.00,,,0.00,VWS V14.01,2013-05-29 15:54:00,
2013-05-29 08:59:00,58.8,48.3,29.88,South,180,3.1,4.5,68,0.00,,,0.00,VWS V14.01,2013-05-29 15:59:00,
2013-05-29 09:05:00,58.8,47.9,29.88,SSW,202,4.0,5.4,67,0.00,,,0.00,VWS V14.01,2013-05-29 16:05:00,
2013-05-29 09:10:00,58.6,47.7,29.88,SSE,158,3.6,4.0,67,0.00,,,0.00,VWS V14.01,2013-05-29 16:10:00,
2013-05-29 09:15:00,58.8,47.9,29.88,SW,225,5.4,5.4,67,0.00,,,0.00,VWS V14.01,2013-05-29 16:15:00,
2013-05-29 09:20:00,58.8,47.9,29.88,WSW,248,3.1,4.0,67,0.00,,,0.00,VWS V14.01,2013-05-29 16:20:00,
2013-05-29 09:25:00,58.6,47.7,29.88,SSE,158,4.0,4.0,67,0.00,,,0.00,VWS V14.01,2013-05-29 16:25:00,
2013-05-29 09:30:00,59.5,48.2,29.88,NNW,338,3.6,3.6,66,0.00,,,0.00,VWS V14.01,2013-05-29 16:30:00,
2013-05-29 09:36:00,60.3,48.5,29.88,SSE,158,2.7,2.7,65,0.00,,,0.00,VWS V14.01,2013-05-29 16:36:00,
2013-05-29 09:41:00,60.6,48.0,29.88,South,180,5.4,5.4,63,0.00,,,0.00,VWS V14.01,2013-05-29 16:41:00,
2013-05-29 09:46:00,60.3,47.2,29.88,SE,135,0.0,4.0,62,0.00,,,0.00,VWS V14.01,2013-05-29 16:46:00,
2013-05-29 09:51:00,60.3,47.2,29.88,SSW,202,2.2,4.9,62,0.00,,,0.00,VWS V14.01,2013-05-29 16:51:00,
2013-05-29 09:56:00,60.4,47.4,29.88,SW,225,3.1,4.0,62,0.00,,,0.00,VWS V14.01,2013-05-29 16:56:00,
2013-05-29 10:01:00,60.6,47.1,29.88,WNW,292,0.0,3.6,61,0.00,,,0.00,VWS V14.01,2013-05-29 17:01:00,
2013-05-29 10:06:00,61.2,47.6,29.88,SSW,202,0.0,3.1,61,0.00,,,0.00,VWS V14.01,2013-05-29 17:06:00,
2013-05-29 10:12:00,62.6,47.6,29.88,North,0,2.2,2.2,58,0.00,,,0.00,VWS V14.01,2013-05-29 17:12:00,
2013-05-29 10:17:00,63.1,46.7,29.88,WSW,248,5.8,5.8,55,0.00,,,0.00,VWS V14.01,2013-05-29 17:17:00,
2013-05-29 10:22:00,63.9,46.4,29.88,SSW,202,3.6,3.6,53,0.00,,,0.00,VWS V14.01,2013-05-29 17:22:00,
2013-05-29 10:27:00,64.0,46.1,29.88,South,180,4.5,4.5,52,0.00,,,0.00,VWS V14.01,2013-05-29 17:27:00,
2013-05-29 10:33:00,64.6,46.1,29.88,South,180,4.0,4.0,51,0.00,,,0.00,VWS V14.01,2013-05-29 17:33:00,
2013-05-29 10:38:00,64.2,45.7,29.88,NNE,22,2.7,4.0,51,0.00,,,0.00,VWS V14.01,2013-05-29 17:38:00,
2013-05-29 10:43:00,64.8,45.7,29.88,SW,225,3.6,4.0,50,0.00,,,0.00,VWS V14.01,2013-05-29 17:43:00,
2013-05-29 10:48:00,64.9,45.9,29.88,NNE,22,4.0,4.9,50,0.00,,,0.00,VWS V14.01,2013-05-29 17:48:00,
2013-05-29 10:53:00,65.5,45.8,29.88,SSE,158,0.0,4.0,49,0.00,,,0.00,VWS V14.01,2013-05-29 17:53:00,
2013-05-29 10:59:00,65.1,45.5,29.88,NE,45,0.0,7.6,49,0.00,,,0.00,VWS V14.01,2013-05-29 17:59:00,
2013-05-29 11:04:00,64.6,45.5,29.88,East,90,5.8,8.1,50,0.00,,,0.00,VWS V14.01,2013-05-29 18:04:00,
2013-05-29 11:09:00,64.9,45.9,29.88,South,180,2.2,5.4,50,0.00,,,0.00,VWS V14.01,2013-05-29 18:09:00,
2013-05-29 11:14:00,65.3,45.7,29.88,ENE,68,3.6,4.5,49,0.00,,,0.00,VWS V14.01,2013-05-29 18:14:00,
2013-05-29 11:20:00,65.8,46.7,29.88,SSW,202,6.3,6.3,50,0.00,,,0.00,VWS V14.01,2013-05-29 18:20:00,
2013-05-29 11:25:00,66.4,46.1,29.91,ENE,68,5.4,5.4,48,0.00,,,0.00,VWS V14.01,2013-05-29 18:25:00,
2013-05-29 11:30:00,65.8,45.6,29.91,ESE,112,2.7,4.0,48,0.00,,,0.00,VWS V14.01,2013-05-29 18:30:00,
2013-05-29 11:35:00,66.0,45.8,29.91,WSW,248,4.9,5.4,48,0.00,,,0.00,VWS V14.01,2013-05-29 18:35:00,
2013-05-29 11:40:00,64.8,44.6,29.88,SSW,202,3.1,3.1,48,0.00,,,0.00,VWS V14.01,2013-05-29 18:40:00,
2013-05-29 11:45:00,65.7,45.5,29.88,WSW,248,2.7,6.7,48,0.00,,,0.00,VWS V14.01,2013-05-29 18:45:00,
2013-05-29 11:50:00,66.4,45.6,29.88,SSW,202,4.9,6.3,47,0.00,,,0.00,VWS V14.01,2013-05-29 18:50:00,
2013-05-29 11:56:00,65.8,45.1,29.88,SSE,158,3.6,4.9,47,0.00,,,0.00,VWS V14.01,2013-05-29 18:56:00,
2013-05-29 12:01:00,65.5,45.3,29.88,SSW,202,5.4,5.4,48,0.00,,,0.00,VWS V14.01,2013-05-29 19:01:00,
2013-05-29 12:06:00,66.2,45.4,29.88,WSW,248,3.1,4.9,47,0.00,,,0.00,VWS V14.01,2013-05-29 19:06:00,
2013-05-29 12:11:00,67.1,45.7,29.88,SSW,202,4.0,5.4,46,0.00,,,0.00,VWS V14.01,2013-05-29 19:11:00,
2013-05-29 12:16:00,67.1,45.1,29.88,SSW,202,3.1,3.6,45,0.00,,,0.00,VWS V14.01,2013-05-29 19:16:00,
2013-05-29 12:22:00,67.5,45.4,29.88,East,90,4.0,4.0,45,0.00,,,0.00,VWS V14.01,2013-05-29 19:22:00,
2013-05-29 12:27:00,67.8,45.7,29.88,WNW,292,2.7,4.9,45,0.00,,,0.00,VWS V14.01,2013-05-29 19:27:00,
2013-05-29 12:32:00,68.2,44.9,29.88,SSE,158,2.7,4.0,43,0.00,,,0.00,VWS V14.01,2013-05-29 19:32:00,
2013-05-29 12:37:00,68.5,44.6,29.88,ESE,112,2.7,3.6,42,0.00,,,0.00,VWS V14.01,2013-05-29 19:37:00,
2013-05-29 12:42:00,68.7,44.1,29.88,SSW,202,7.6,7.6,41,0.00,,,0.00,VWS V14.01,2013-05-29 19:42:00,
2013-05-29 12:47:00,68.0,44.1,29.88,SSE,158,0.0,4.0,42,0.00,,,0.00,VWS V14.01,2013-05-29 19:47:00,
2013-05-29 12:52:00,68.4,43.8,29.88,SSW,202,5.4,5.8,41,0.00,,,0.00,VWS V14.01,2013-05-29 19:52:00,
2013-05-29 12:58:00,65.7,43.8,29.88,SE,135,4.0,8.7,45,0.00,,,0.00,VWS V14.01,2013-05-29 19:58:00,
2013-05-29 13:03:00,66.2,44.8,29.88,WNW,292,4.9,7.2,46,0.00,,,0.00,VWS V14.01,2013-05-29 20:03:00,
2013-05-29 13:08:00,67.1,45.1,29.88,South,180,5.4,8.7,45,0.00,,,0.00,VWS V14.01,2013-05-29 20:08:00,
2013-05-29 13:13:00,66.9,44.9,29.88,South,180,3.1,3.6,45,0.00,,,0.00,VWS V14.01,2013-05-29 20:13:00,
2013-05-29 13:19:00,67.6,45.0,29.88,SW,225,3.1,5.8,44,0.00,,,0.00,VWS V14.01,2013-05-29 20:19:00,
2013-05-29 13:24:00,67.3,44.7,29.88,NNE,22,4.9,4.9,44,0.00,,,0.00,VWS V14.01,2013-05-29 20:24:00,
2013-05-29 13:29:00,67.5,44.8,29.88,WSW,248,3.1,3.6,44,0.00,,,0.00,VWS V14.01,2013-05-29 20:29:00,
2013-05-29 13:34:00,68.2,44.9,29.88,SSE,158,3.6,4.0,43,0.00,,,0.00,VWS V14.01,2013-05-29 20:34:00,
2013-05-29 13:39:00,68.0,44.1,29.88,SSE,158,3.1,4.9,42,0.00,,,0.00,VWS V14.01,2013-05-29 20:39:00,
2013-05-29 13:44:00,68.7,44.7,29.88,SW,225,3.6,4.0,42,0.00,,,0.00,VWS V14.01,2013-05-29 20:44:00,
2013-05-29 13:50:00,67.5,43.6,29.88,SSE,158,8.1,11.0,42,0.00,,,0.00,VWS V14.01,2013-05-29 20:50:00,
2013-05-29 13:55:00,67.5,44.8,29.88,SE,135,2.7,3.1,44,0.00,,,0.00,VWS V14.01,2013-05-29 20:55:00,
2013-05-29 14:00:00,68.0,44.1,29.88,South,180,5.8,5.8,42,0.00,,,0.00,VWS V14.01,2013-05-29 21:00:00,
2013-05-29 14:05:00,68.5,44.6,29.88,SSW,202,4.5,7.6,42,0.00,,,0.00,VWS V14.01,2013-05-29 21:05:00,
2013-05-29 14:10:00,68.0,44.1,29.88,SSW,202,3.6,3.6,42,0.00,,,0.00,VWS V14.01,2013-05-29 21:10:00,
2013-05-29 14:16:00,68.0,44.1,29.88,WNW,292,4.0,4.0,42,0.00,,,0.00,VWS V14.01,2013-05-29 21:16:00,
2013-05-29 14:21:00,68.9,44.9,29.88,SSW,202,3.6,3.6,42,0.00,,,0.00,VWS V14.01,2013-05-29 21:21:00,
2013-05-29 14:26:00,68.4,43.8,29.88,WSW,248,5.4,5.4,41,0.00,,,0.00,VWS V14.01,2013-05-29 21:26:00,
2013-05-29 14:31:00,68.5,43.9,29.88,South,180,2.7,3.1,41,0.00,,,0.00,VWS V14.01,2013-05-29 21:31:00,
2013-05-29 14:36:00,68.9,44.2,29.88,SSW,202,3.6,6.3,41,0.00,,,0.00,VWS V14.01,2013-05-29 21:36:00,
2013-05-29 14:41:00,68.2,43.6,29.88,West,270,2.7,2.7,41,0.00,,,0.00,VWS V14.01,2013-05-29 21:41:00,
2013-05-29 14:47:00,68.5,43.9,29.88,West,270,6.3,6.3,41,0.00,,,0.00,VWS V14.01,2013-05-29 21:47:00,
2013-05-29 14:52:00,68.7,44.1,29.88,ESE,112,4.9,4.9,41,0.00,,,0.00,VWS V14.01,2013-05-29 21:52:00,
2013-05-29 14:57:00,68.9,43.6,29.85,NNW,338,4.9,4.9,40,0.00,,,0.00,VWS V14.01,2013-05-29 21:57:00,
2013-05-29 15:02:00,68.9,43.0,29.85,SSW,202,4.0,4.0,39,0.00,,,0.00,VWS V14.01,2013-05-29 22:02:00,
2013-05-29 15:07:00,68.9,43.0,29.85,ENE,68,2.7,4.9,39,0.00,,,0.00,VWS V14.01,2013-05-29 22:07:00,
2013-05-29 15:12:00,68.9,43.0,29.85,ENE,68,2.7,3.6,39,0.00,,,0.00,VWS V14.01,2013-05-29 22:12:00,
2013-05-29 15:17:00,69.4,43.4,29.85,North,0,3.6,5.4,39,0.00,,,0.00,VWS V14.01,2013-05-29 22:17:00,
2013-05-29 15:22:00,69.8,43.1,29.85,NE,45,4.9,4.9,38,0.00,,,0.00,VWS V14.01,2013-05-29 22:22:00,
2013-05-29 15:27:00,69.6,42.9,29.85,NNW,338,2.2,3.6,38,0.00,,,0.00,VWS V14.01,2013-05-29 22:27:00,
2013-05-29 15:32:00,69.8,43.1,29.85,NNE,22,2.7,4.9,38,0.00,,,0.00,VWS V14.01,2013-05-29 22:32:00,
2013-05-29 15:38:00,69.6,42.9,29.85,NE,45,5.4,5.4,38,0.00,,,0.00,VWS V14.01,2013-05-29 22:38:00,
2013-05-29 15:43:00,68.9,42.3,29.85,ENE,68,2.2,4.9,38,0.00,,,0.00,VWS V14.01,2013-05-29 22:43:00,
2013-05-29 15:49:00,68.7,42.8,29.85,NE,45,2.7,2.7,39,0.00,,,0.00,VWS V14.01,2013-05-29 22:49:00,
2013-05-29 15:54:00,68.7,42.8,29.85,NE,45,3.1,6.3,39,0.00,,,0.00,VWS V14.01,2013-05-29 22:54:00,
2013-05-29 15:59:00,68.7,42.8,29.85,SSW,202,6.3,9.2,39,0.00,,,0.00,VWS V14.01,2013-05-29 22:59:00,
2013-05-29 16:04:00,68.9,43.0,29.85,ESE,112,3.6,3.6,39,0.00,,,0.00,VWS V14.01,2013-05-29 23:04:00,
2013-05-29 16:09:00,69.3,42.6,29.85,NNE,22,3.6,4.0,38,0.00,,,0.00,VWS V14.01,2013-05-29 23:09:00,
2013-05-29 16:14:00,69.8,43.1,29.85,SSW,202,3.1,4.5,38,0.00,,,0.00,VWS V14.01,2013-05-29 23:14:00,
2013-05-29 16:20:00,70.2,42.7,29.85,SSW,202,5.8,5.8,37,0.00,,,0.00,VWS V14.01,2013-05-29 23:20:00,
2013-05-29 16:25:00,70.0,42.5,29.85,East,90,3.1,3.1,37,0.00,,,0.00,VWS V14.01,2013-05-29 23:25:00,
2013-05-29 16:31:00,70.2,42.7,29.85,SSW,202,2.7,2.7,37,0.00,,,0.00,VWS V14.01,2013-05-29 23:31:00,
2013-05-29 16:36:00,70.9,43.3,29.85,North,0,0.0,3.1,37,0.00,,,0.00,VWS V14.01,2013-05-29 23:36:00,
2013-05-29 16:41:00,72.0,43.6,29.85,SSW,202,3.6,3.6,36,0.00,,,0.00,VWS V14.01,2013-05-29 23:41:00,
2013-05-29 16:46:00,72.3,43.2,29.85,NE,45,2.2,2.7,35,0.00,,,0.00,VWS V14.01,2013-05-29 23:46:00,
2013-05-29 16:51:00,72.3,43.2,29.85,NE,45,2.2,2.2,35,0.00,,,0.00,VWS V14.01,2013-05-29 23:51:00,
2013-05-29 16:56:00,72.3,43.2,29.85,NE,45,2.2,2.2,35,0.00,,,0.00,VWS V14.01,2013-05-29 23:56:00,
2013-05-29 17:02:00,72.3,43.2,29.85,ENE,68,2.2,2.2,35,0.00,,,0.00,VWS V14.01,2013-05-30 00:02:00,
2013-05-29 17:07:00,72.3,42.4,29.85,ENE,68,4.0,4.0,34,0.00,,,0.00,VWS V14.01,2013-05-30 00:07:00,
2013-05-29 17:12:00,72.3,42.4,29.85,ENE,68,4.0,4.0,34,0.00,,,0.00,VWS V14.01,2013-05-30 00:12:00,
2013-05-29 17:17:00,71.8,41.9,29.85,SW,225,3.6,3.6,34,0.00,,,0.00,VWS V14.01,2013-05-30 00:17:00,
2013-05-29 17:22:00,71.2,42.2,29.85,ENE,68,5.4,5.4,35,0.00,,,0.00,VWS V14.01,2013-05-30 00:22:00,
2013-05-29 17:27:00,71.2,42.2,29.85,North,0,4.0,4.0,35,0.00,,,0.00,VWS V14.01,2013-05-30 00:27:00,
2013-05-29 17:32:00,70.5,41.6,29.85,ENE,68,6.3,6.3,35,0.00,,,0.00,VWS V14.01,2013-05-30 00:32:00,
2013-05-29 17:37:00,70.5,41.6,29.85,South,180,3.6,3.6,35,0.00,,,0.00,VWS V14.01,2013-05-30 00:37:00,
2013-05-29 17:42:00,71.1,42.0,29.82,South,180,4.0,4.0,35,0.00,,,0.00,VWS V14.01,2013-05-30 00:42:00,
2013-05-29 17:47:00,71.4,42.4,29.82,ENE,68,0.0,2.2,35,0.00,,,0.00,VWS V14.01,2013-05-30 00:47:00,
2013-05-29 17:53:00,72.0,42.8,29.82,South,180,2.2,3.6,35,0.00,,,0.00,VWS V14.01,2013-05-30 00:53:00,
2013-05-29 17:58:00,72.3,43.2,29.85,SSE,158,2.2,4.0,35,0.00,,,0.00,VWS V14.01,2013-05-30 00:58:00,
2013-05-29 18:03:00,71.4,42.4,29.85,SSW,202,0.0,0.0,35,0.00,,,0.00,VWS V14.01,2013-05-30 01:03:00,
2013-05-29 18:08:00,70.2,41.3,29.85,SSW,202,2.7,2.7,35,0.00,,,0.00,VWS V14.01,2013-05-30 01:08:00,
2013-05-29 18:13:00,69.3,41.2,29.85,SSW,202,3.6,3.6,36,0.00,,,0.00,VWS V14.01,2013-05-30 01:13:00,
2013-05-29 18:18:00,68.4,40.4,29.85,West,270,2.2,2.7,36,0.00,,,0.00,VWS V14.01,2013-05-30 01:18:00,
2013-05-29 18:23:00,67.5,40.3,29.82,SW,225,2.7,4.0,37,0.00,,,0.00,VWS V14.01,2013-05-30 01:23:00,
2013-05-29 18:29:00,66.4,40.0,29.82,SW,225,3.1,4.0,38,0.00,,,0.00,VWS V14.01,2013-05-30 01:29:00,
2013-05-29 18:34:00,65.5,39.9,29.82,East,90,3.1,4.0,39,0.00,,,0.00,VWS V14.01,2013-05-30 01:34:00,
2013-05-29 18:39:00,65.1,40.2,29.82,SE,135,5.8,5.8,40,0.00,,,0.00,VWS V14.01,2013-05-30 01:39:00,
2013-05-29 18:44:00,64.4,40.2,29.82,SSW,202,2.7,4.0,41,0.00,,,0.00,VWS V14.01,2013-05-30 01:44:00,
2013-05-29 18:49:00,64.8,40.5,29.82,SSW,202,2.7,2.7,41,0.00,,,0.00,VWS V14.01,2013-05-30 01:49:00,
2013-05-29 18:54:00,64.4,40.2,29.82,WSW,248,2.7,2.7,41,0.00,,,0.00,VWS V14.01,2013-05-30 01:54:00,
2013-05-29 18:59:00,64.2,40.7,29.82,SW,225,2.7,2.7,42,0.00,,,0.00,VWS V14.01,2013-05-30 01:59:00,
2013-05-29 19:05:00,63.9,40.3,29.82,SSE,158,0.0,2.7,42,0.00,,,0.00,VWS V14.01,2013-05-30 02:05:00,
2013-05-29 19:10:00,63.5,40.6,29.82,WNW,292,0.0,3.1,43,0.00,,,0.00,VWS V14.01,2013-05-30 02:10:00,
2013-05-29 19:15:00,63.5,40.6,29.82,SSW,202,4.0,4.0,43,0.00,,,0.00,VWS V14.01,2013-05-30 02:15:00,
2013-05-29 19:20:00,63.1,40.3,29.82,SSE,158,3.1,3.1,43,0.00,,,0.00,VWS V14.01,2013-05-30 02:20:00,
2013-05-29 19:25:00,62.6,40.4,29.82,SSE,158,3.6,3.6,44,0.00,,,0.00,VWS V14.01,2013-05-30 02:25:00,
2013-05-29 19:30:00,62.4,40.8,29.82,SSW,202,0.0,0.0,45,0.00,,,0.00,VWS V14.01,2013-05-30 02:30:00,
2013-05-29 19:36:00,62.2,41.2,29.82,SSW,202,2.2,2.2,46,0.00,,,0.00,VWS V14.01,2013-05-30 02:36:00,
2013-05-29 19:41:00,61.9,40.9,29.85,SW,225,3.1,3.1,46,0.00,,,0.00,VWS V14.01,2013-05-30 02:41:00,
2013-05-29 19:46:00,61.7,40.7,29.85,SSW,202,2.7,2.7,46,0.00,,,0.00,VWS V14.01,2013-05-30 02:46:00,
2013-05-29 19:51:00,61.5,40.6,29.85,SSW,202,3.1,5.8,46,0.00,,,0.00,VWS V14.01,2013-05-30 02:51:00,
2013-05-29 19:56:00,61.2,40.8,29.82,SSW,202,2.7,4.9,47,0.00,,,0.00,VWS V14.01,2013-05-30 02:56:00,
2013-05-29 20:01:00,61.2,40.8,29.82,SSW,202,4.9,4.9,47,0.00,,,0.00,VWS V14.01,2013-05-30 03:01:00,
2013-05-29 20:07:00,61.0,40.6,29.82,SSW,202,4.0,4.0,47,0.00,,,0.00,VWS V14.01,2013-05-30 03:07:00,
2013-05-29 20:12:00,60.6,40.3,29.82,SSW,202,2.7,4.9,47,0.00,,,0.00,VWS V14.01,2013-05-30 03:12:00,
2013-05-29 20:17:00,60.4,40.7,29.82,South,180,2.7,3.1,48,0.00,,,0.00,VWS V14.01,2013-05-30 03:17:00,
2013-05-29 20:22:00,60.1,40.3,29.82,SSE,158,8.3,8.3,48,0.00,,,0.00,VWS V14.01,2013-05-30 03:22:00,
2013-05-29 20:27:00,59.9,40.2,29.82,SSW,202,5.8,5.8,48,0.00,,,0.00,VWS V14.01,2013-05-30 03:27:00,
2013-05-29 20:32:00,59.5,39.8,29.82,South,180,8.3,8.3,48,0.00,,,0.00,VWS V14.01,2013-05-30 03:32:00,
2013-05-29 20:38:00,59.2,40.0,29.82,SSW,202,4.9,4.9,49,0.00,,,0.00,VWS V14.01,2013-05-30 03:38:00,
2013-05-29 20:43:00,58.8,40.2,29.82,WNW,292,2.7,5.8,50,0.00,,,0.00,VWS V14.01,2013-05-30 03:43:00,
2013-05-29 20:48:00,58.8,40.2,29.82,WSW,248,2.7,5.8,50,0.00,,,0.00,VWS V14.01,2013-05-30 03:48:00,
2013-05-29 20:53:00,58.8,40.2,29.82,SSW,202,3.6,5.8,50,0.00,,,0.00,VWS V14.01,2013-05-30 03:53:00,
2013-05-29 20:58:00,58.8,40.2,29.85,South,180,3.1,3.6,50,0.00,,,0.00,VWS V14.01,2013-05-30 03:58:00,
2013-05-29 21:01:00,58.8,40.2,29.85,ESE,112,2.7,5.4,50,0.00,,,0.00,VWS V14.01,2013-05-30 04:01:00,
2013-05-29 21:02:00,58.8,40.2,29.85,SSW,202,3.1,4.9,50,0.00,,,0.00,VWS V14.01,2013-05-30 04:02:00,
2013-05-29 21:04:00,58.8,40.2,29.85,SW,225,2.7,2.7,50,0.00,,,0.00,VWS V14.01,2013-05-30 04:04:00,
2013-05-29 21:10:00,58.5,39.9,29.85,South,180,2.7,2.7,50,0.00,,,0.00,VWS V14.01,2013-05-30 04:10:00,
2013-05-29 21:15:00,58.5,40.4,29.85,SSW,202,2.2,2.2,51,0.00,,,0.00,VWS V14.01,2013-05-30 04:15:00,
2013-05-29 21:20:00,58.1,40.1,29.85,SSW,202,3.6,3.6,51,0.00,,,0.00,VWS V14.01,2013-05-30 04:20:00,
2013-05-29 21:25:00,58.1,40.1,29.85,ESE,112,2.7,2.7,51,0.00,,,0.00,VWS V14.01,2013-05-30 04:25:00,
2013-05-29 21:30:00,58.1,40.6,29.85,SW,225,0.0,0.0,52,0.00,,,0.00,VWS V14.01,2013-05-30 04:30:00,
2013-05-29 21:36:00,57.9,40.4,29.85,West,270,0.0,2.7,52,0.00,,,0.00,VWS V14.01,2013-05-30 04:36:00,
2013-05-29 21:41:00,57.7,40.7,29.85,South,180,4.9,4.9,53,0.00,,,0.00,VWS V14.01,2013-05-30 04:41:00,
2013-05-29 21:46:00,57.6,40.6,29.85,SSE,158,5.8,5.8,53,0.00,,,0.00,VWS V14.01,2013-05-30 04:46:00,
2013-05-29 21:51:00,57.2,40.2,29.85,SSE,158,3.1,4.5,53,0.00,,,0.00,VWS V14.01,2013-05-30 04:51:00,
2013-05-29 21:56:00,57.2,40.7,29.85,South,180,4.9,7.2,54,0.00,,,0.00,VWS V14.01,2013-05-30 04:56:00,
2013-05-29 22:02:00,57.2,40.7,29.85,SSE,158,4.9,5.4,54,0.00,,,0.00,VWS V14.01,2013-05-30 05:02:00,
2013-05-29 22:07:00,56.8,40.4,29.85,SSW,202,2.7,5.4,54,0.00,,,0.00,VWS V14.01,2013-05-30 05:07:00,
2013-05-29 22:12:00,57.0,41.0,29.85,SSW,202,4.9,4.9,55,0.00,,,0.00,VWS V14.01,2013-05-30 05:12:00,
2013-05-29 22:17:00,56.8,40.9,29.85,SW,225,2.2,2.7,55,0.00,,,0.00,VWS V14.01,2013-05-30 05:17:00,
2013-05-29 22:22:00,57.0,41.0,29.85,South,180,5.8,5.8,55,0.00,,,0.00,VWS V14.01,2013-05-30 05:22:00,
2013-05-29 22:27:00,57.0,41.0,29.85,SE,135,3.1,3.1,55,0.00,,,0.00,VWS V14.01,2013-05-30 05:27:00,
2013-05-29 22:33:00,57.0,41.0,29.85,SSW,202,3.1,4.0,55,0.00,,,0.00,VWS V14.01,2013-05-30 05:33:00,
2013-05-29 22:38:00,57.2,41.2,29.85,South,180,3.1,4.9,55,0.00,,,0.00,VWS V14.01,2013-05-30 05:38:00,
2013-05-29 22:43:00,57.2,41.2,29.85,SSW,202,3.6,5.4,55,0.00,,,0.00,VWS V14.01,2013-05-30 05:43:00,
2013-05-29 22:48:00,57.2,40.7,29.85,SSW,202,2.2,3.1,54,0.00,,,0.00,VWS V14.01,2013-05-30 05:48:00,
2013-05-29 22:53:00,57.0,41.0,29.85,South,180,2.7,5.8,55,0.00,,,0.00,VWS V14.01,2013-05-30 05:53:00,
2013-05-29 22:58:00,57.0,41.0,29.85,SE,135,0.0,3.1,55,0.00,,,0.00,VWS V14.01,2013-05-30 05:58:00,
2013-05-29 23:03:00,57.0,41.0,29.85,SSE,158,5.8,5.8,55,0.00,,,0.00,VWS V14.01,2013-05-30 06:03:00,
2013-05-29 23:08:00,56.8,40.9,29.88,SW,225,0.0,2.7,55,0.00,,,0.00,VWS V14.01,2013-05-30 06:08:00,
2013-05-29 23:14:00,56.8,40.9,29.88,WSW,248,0.0,4.0,55,0.00,,,0.00,VWS V14.01,2013-05-30 06:14:00,
2013-05-29 23:19:00,56.7,40.7,29.88,SW,225,3.1,3.1,55,0.00,,,0.00,VWS V14.01,2013-05-30 06:19:00,
2013-05-29 23:24:00,56.7,40.7,29.85,WSW,248,2.7,2.7,55,0.00,,,0.00,VWS V14.01,2013-05-30 06:24:00,
2013-05-29 23:29:00,56.5,40.5,29.85,SSW,202,3.6,3.6,55,0.00,,,0.00,VWS V14.01,2013-05-30 06:29:00,
2013-05-29 23:34:00,56.5,40.5,29.85,SW,225,3.1,4.9,55,0.00,,,0.00,VWS V14.01,2013-05-30 06:34:00,
2013-05-29 23:39:00,56.3,40.4,29.85,South,180,2.7,5.4,55,0.00,,,0.00,VWS V14.01,2013-05-30 06:39:00,
2013-05-29 23:45:00,56.1,40.7,29.85,SW,225,3.1,3.1,56,0.00,,,0.00,VWS V14.01,2013-05-30 06:45:00,
2013-05-29 23:50:00,55.9,40.9,29.85,SSW,202,3.1,4.9,57,0.00,,,0.00,VWS V14.01,2013-05-30 06:50:00,
2013-05-29 23:55:00,55.9,40.9,29.85,SW,225,2.2,4.0,57,0.00,,,0.00,VWS V14.01,2013-05-30 06:55:00,